GHHIX KJFK-TXKF

Flight info

Callsign GHHIX
Flight time N/A
Altitude 41000
Route SHIPP Y487 KINGG/M078F410 DCT KINER L461 BOVIC MOMOM1
Aircraft A343/H-SDE2E3FGHIJ4J5M1RWXY/LB1D1

Departure

Time N/A
Airport John F. Kennedy International Airport (KJFK)

Arrival

Time 2026-04-14 21:20
Airport L.F. Wade International Airport (TXKF)
Time Latitude Longitude Altitude Speed Heading
2026-04-14 20:08 38.92024 -70.93368 41094 ft 485 kts 154°
2026-04-14 20:09 38.87168 -70.89761 41088 ft 485 kts 154°
2026-04-14 20:09 38.81323 -70.85427 41102 ft 485 kts 154°
2026-04-14 20:10 38.75473 -70.81097 41102 ft 486 kts 154°
2026-04-14 20:10 38.69619 -70.76772 41102 ft 486 kts 154°
2026-04-14 20:11 38.63763 -70.72454 41110 ft 486 kts 154°
2026-04-14 20:11 38.57905 -70.68143 41114 ft 486 kts 154°
2026-04-14 20:12 38.52047 -70.63840 41113 ft 486 kts 154°
2026-04-14 20:12 38.46185 -70.59542 41122 ft 486 kts 154°
2026-04-14 20:13 38.40321 -70.55251 41121 ft 486 kts 154°
2026-04-14 20:13 38.34459 -70.50970 41126 ft 486 kts 153°
2026-04-14 20:14 38.28585 -70.46688 41128 ft 487 kts 153°
2026-04-14 20:14 38.22703 -70.42408 41128 ft 487 kts 153°
2026-04-14 20:15 38.16823 -70.38129 41130 ft 487 kts 153°
2026-04-14 20:15 38.11517 -70.32720 41120 ft 492 kts 137°
2026-04-14 20:16 38.06779 -70.26444 41138 ft 493 kts 134°
2026-04-14 20:16 38.02129 -70.20036 41147 ft 493 kts 134°
2026-04-14 20:17 37.97479 -70.13648 41140 ft 493 kts 134°
2026-04-14 20:17 37.92811 -70.07291 41140 ft 493 kts 134°
2026-04-14 20:18 37.88133 -70.00954 41143 ft 493 kts 134°
2026-04-14 20:18 37.83448 -69.94622 41143 ft 493 kts 134°
2026-04-14 20:19 37.78764 -69.88301 41151 ft 492 kts 134°
2026-04-14 20:19 37.74080 -69.81993 41149 ft 492 kts 134°
2026-04-14 20:20 37.69431 -69.75743 41154 ft 491 kts 134°
2026-04-14 20:20 37.64749 -69.69461 41154 ft 491 kts 134°
2026-04-14 20:21 37.60060 -69.63183 41162 ft 491 kts 134°
2026-04-14 20:21 37.55370 -69.56915 41165 ft 491 kts 134°
2026-04-14 20:22 37.50678 -69.50657 41170 ft 491 kts 134°
2026-04-14 20:22 37.45988 -69.44414 41173 ft 491 kts 134°
2026-04-14 20:23 37.41293 -69.38177 41178 ft 490 kts 134°
2026-04-14 20:23 37.36602 -69.31957 41178 ft 490 kts 134°
2026-04-14 20:24 37.31905 -69.25742 41184 ft 490 kts 134°
2026-04-14 20:24 37.27203 -69.19531 41181 ft 490 kts 134°
2026-04-14 20:25 37.22498 -69.13330 41183 ft 490 kts 134°
2026-04-14 20:25 37.17805 -69.07154 41192 ft 489 kts 134°
2026-04-14 20:26 37.13110 -69.00989 41192 ft 489 kts 134°
2026-04-14 20:26 37.08415 -68.94837 41195 ft 489 kts 134°
2026-04-14 20:27 37.03712 -68.88684 41196 ft 489 kts 134°
2026-04-14 20:27 36.99009 -68.82543 41203 ft 489 kts 134°
2026-04-14 20:28 36.94307 -68.76416 41203 ft 488 kts 134°
2026-04-14 20:28 36.89604 -68.70299 41209 ft 487 kts 134°
2026-04-14 20:29 36.84909 -68.64203 41208 ft 487 kts 134°
2026-04-14 20:29 36.80212 -68.58118 41219 ft 487 kts 134°
2026-04-14 20:30 36.75515 -68.52043 41217 ft 487 kts 135°
2026-04-14 20:30 36.70847 -68.46017 41218 ft 486 kts 135°
2026-04-14 20:31 36.67704 -68.41967 41219 ft 486 kts 135°
2026-04-14 20:32 36.63767 -68.36900 41215 ft 486 kts 135°
2026-04-14 20:32 36.59071 -68.30866 41228 ft 485 kts 135°
2026-04-14 20:33 36.53958 -68.25406 41217 ft 484 kts 142°
2026-04-14 20:33 36.48677 -68.20211 41226 ft 484 kts 143°
2026-04-14 20:34 36.40740 -68.12461 41224 ft 484 kts 143°
2026-04-14 20:34 36.35447 -68.07309 41236 ft 483 kts 143°
2026-04-14 20:35 36.30153 -68.02166 41237 ft 483 kts 143°
2026-04-14 20:35 36.24855 -67.97029 41234 ft 483 kts 143°
2026-04-14 20:36 36.19556 -67.91900 41233 ft 483 kts 143°
2026-04-14 20:36 36.14259 -67.86782 41234 ft 483 kts 143°
2026-04-14 20:37 36.08955 -67.81666 41233 ft 484 kts 143°
2026-04-14 20:37 36.03651 -67.76559 41240 ft 483 kts 143°
2026-04-14 20:38 35.98344 -67.71458 41248 ft 483 kts 143°
2026-04-14 20:38 35.93042 -67.66371 41249 ft 483 kts 143°
2026-04-14 20:39 35.87730 -67.61284 41248 ft 483 kts 143°
2026-04-14 20:39 35.82424 -67.56210 41249 ft 483 kts 143°
2026-04-14 20:40 35.77114 -67.51142 41250 ft 483 kts 143°
2026-04-14 20:40 35.71841 -67.46118 41251 ft 482 kts 143°
2026-04-14 20:41 35.66544 -67.41080 41255 ft 481 kts 143°
2026-04-14 20:41 35.61241 -67.36045 41260 ft 481 kts 143°
2026-04-14 20:42 35.55937 -67.31017 41254 ft 481 kts 143°
2026-04-14 20:43 35.47980 -67.23491 41262 ft 481 kts 143°
2026-04-14 20:43 35.42677 -67.18486 41262 ft 481 kts 143°
2026-04-14 20:44 35.37376 -67.13491 41270 ft 480 kts 143°
2026-04-14 20:44 35.32083 -67.08512 41261 ft 480 kts 143°
2026-04-14 20:45 35.26786 -67.03538 41264 ft 480 kts 143°
2026-04-14 20:45 35.21487 -66.98570 41272 ft 480 kts 143°
2026-04-14 20:46 35.16190 -66.93613 41270 ft 480 kts 143°
2026-04-14 20:46 35.10889 -66.88660 41282 ft 479 kts 144°
2026-04-14 20:47 35.05597 -66.83724 41278 ft 479 kts 144°
2026-04-14 20:47 35.00306 -66.78797 41279 ft 478 kts 144°
2026-04-14 20:48 34.95010 -66.73874 41280 ft 478 kts 144°
2026-04-14 20:48 34.89713 -66.68959 41277 ft 478 kts 144°
2026-04-14 20:49 34.84352 -66.64177 41279 ft 477 kts 148°
2026-04-14 20:49 34.78776 -66.59796 41279 ft 477 kts 148°
2026-04-14 20:50 34.73221 -66.55390 41281 ft 477 kts 148°
2026-04-14 20:50 34.67675 -66.50961 41276 ft 477 kts 148°
2026-04-14 20:51 34.62133 -66.46533 41276 ft 477 kts 148°
2026-04-14 20:51 34.56638 -66.42145 41282 ft 476 kts 148°
2026-04-14 20:52 34.51108 -66.37736 41284 ft 476 kts 148°
2026-04-14 20:52 34.45574 -66.33330 41285 ft 476 kts 148°
2026-04-14 20:53 34.40042 -66.28933 41289 ft 476 kts 148°
2026-04-14 20:53 34.37272 -66.26734 41150 ft 474 kts 148°
2026-04-14 20:53 34.34520 -66.24550 40719 ft 472 kts 148°
2026-04-14 20:53 34.31779 -66.22377 40238 ft 471 kts 148°
2026-04-14 20:54 34.29048 -66.20215 39779 ft 469 kts 148°
2026-04-14 20:54 34.26314 -66.18051 39348 ft 467 kts 148°
2026-04-14 20:54 34.23600 -66.15905 38913 ft 465 kts 148°
2026-04-14 20:54 34.20900 -66.13771 38446 ft 462 kts 148°
2026-04-14 20:55 34.18220 -66.11655 38012 ft 458 kts 148°
2026-04-14 20:55 34.15557 -66.09552 37578 ft 455 kts 148°
2026-04-14 20:55 34.13775 -66.08147 37297 ft 453 kts 148°
2026-04-14 20:55 34.11138 -66.06070 36870 ft 451 kts 148°
2026-04-14 20:56 34.08514 -66.04004 36447 ft 450 kts 148°
2026-04-14 20:56 34.05899 -66.01948 36008 ft 448 kts 148°
2026-04-14 20:56 34.03292 -65.99899 35568 ft 446 kts 148°
2026-04-14 20:56 34.00712 -65.97873 34950 ft 450 kts 148°
2026-04-14 20:57 33.98081 -65.95808 34307 ft 454 kts 148°
2026-04-14 20:57 33.95425 -65.93725 33592 ft 457 kts 148°
2026-04-14 20:57 33.92758 -65.91635 32899 ft 459 kts 148°
2026-04-14 20:57 33.90081 -65.89538 32196 ft 461 kts 148°
2026-04-14 20:58 33.87384 -65.87428 31494 ft 463 kts 148°
2026-04-14 20:58 33.84696 -65.85325 30979 ft 460 kts 148°
2026-04-14 20:58 33.82013 -65.83229 30452 ft 458 kts 148°
2026-04-14 20:58 33.79348 -65.81148 29834 ft 456 kts 148°
2026-04-14 20:59 33.76699 -65.79080 29266 ft 452 kts 148°
2026-04-14 20:59 33.74072 -65.77032 28712 ft 448 kts 148°
2026-04-14 20:59 33.71467 -65.75003 28181 ft 445 kts 148°
2026-04-14 20:59 33.68879 -65.72988 27639 ft 441 kts 148°
2026-04-14 21:00 33.66310 -65.70990 27095 ft 439 kts 148°
2026-04-14 21:00 33.63757 -65.69005 26538 ft 437 kts 148°
2026-04-14 21:00 33.61211 -65.67028 26003 ft 434 kts 148°
2026-04-14 21:00 33.58683 -65.65066 25465 ft 432 kts 148°
2026-04-14 21:01 33.56164 -65.63112 24914 ft 430 kts 148°
2026-04-14 21:01 33.53657 -65.61168 24380 ft 429 kts 148°
2026-04-14 21:01 33.51156 -65.59231 23841 ft 427 kts 148°
2026-04-14 21:01 33.48668 -65.57305 23237 ft 425 kts 148°
2026-04-14 21:02 33.46202 -65.55398 22700 ft 421 kts 148°
2026-04-14 21:02 33.43740 -65.53494 22161 ft 418 kts 148°
2026-04-14 21:02 33.41318 -65.51623 21651 ft 414 kts 148°
2026-04-14 21:02 33.38897 -65.49754 21117 ft 411 kts 148°
2026-04-14 21:03 33.36505 -65.47909 20611 ft 408 kts 148°
2026-04-14 21:03 33.34129 -65.46078 20089 ft 405 kts 148°
2026-04-14 21:03 33.31765 -65.44256 19568 ft 403 kts 148°
2026-04-14 21:03 33.29418 -65.42449 19058 ft 400 kts 148°
2026-04-14 21:04 33.27086 -65.40655 18539 ft 398 kts 148°
2026-04-14 21:04 33.24766 -65.38871 17985 ft 395 kts 148°
2026-04-14 21:04 33.22460 -65.37099 17412 ft 392 kts 148°
2026-04-14 21:04 33.20166 -65.35338 16716 ft 393 kts 148°
2026-04-14 21:05 33.17870 -65.33576 16139 ft 391 kts 148°
2026-04-14 21:05 33.15588 -65.31826 15593 ft 388 kts 148°
2026-04-14 21:05 33.13358 -65.30115 15086 ft 385 kts 148°
2026-04-14 21:05 33.11115 -65.28397 14578 ft 381 kts 148°
2026-04-14 21:06 33.08891 -65.26694 14064 ft 379 kts 148°
2026-04-14 21:06 33.06675 -65.25037 13507 ft 375 kts 152°
2026-04-14 21:06 33.04301 -65.23804 12986 ft 370 kts 161°
2026-04-14 21:06 33.01881 -65.22811 12493 ft 365 kts 163°
2026-04-14 21:07 32.99487 -65.21852 11999 ft 361 kts 163°
2026-04-14 21:07 32.97120 -65.20900 11495 ft 357 kts 162°
2026-04-14 21:07 32.94778 -65.19954 11005 ft 354 kts 162°
2026-04-14 21:07 32.92457 -65.19014 10493 ft 351 kts 162°
2026-04-14 21:08 32.90166 -65.18085 10197 ft 342 kts 162°
2026-04-14 21:08 32.87965 -65.17191 10085 ft 326 kts 162°
2026-04-14 21:08 32.85863 -65.16338 9976 ft 313 kts 162°
2026-04-14 21:08 32.83836 -65.15522 9771 ft 303 kts 162°
2026-04-14 21:09 32.81855 -65.14718 9481 ft 298 kts 162°
2026-04-14 21:09 32.79904 -65.13926 9154 ft 295 kts 162°
2026-04-14 21:09 32.77970 -65.13143 8815 ft 292 kts 162°
2026-04-14 21:09 32.76056 -65.12367 8486 ft 289 kts 162°
2026-04-14 21:10 32.74160 -65.11600 8165 ft 287 kts 162°
2026-04-14 21:10 32.72275 -65.10838 7811 ft 285 kts 162°
2026-04-14 21:10 32.70407 -65.10083 7477 ft 282 kts 162°
2026-04-14 21:10 32.68560 -65.09336 7209 ft 279 kts 161°
2026-04-14 21:11 32.66723 -65.08594 6930 ft 278 kts 161°
2026-04-14 21:11 32.64898 -65.07858 6635 ft 276 kts 161°
2026-04-14 21:11 32.63096 -65.07131 6347 ft 272 kts 160°
2026-04-14 21:11 32.61317 -65.06413 6051 ft 269 kts 160°
2026-04-14 21:12 32.59546 -65.05698 5809 ft 268 kts 160°
2026-04-14 21:12 32.57798 -65.04994 5515 ft 264 kts 160°
2026-04-14 21:12 32.56056 -65.04291 5233 ft 265 kts 161°
2026-04-14 21:12 32.54320 -65.03592 4958 ft 261 kts 161°
2026-04-14 21:13 32.52601 -65.02900 4680 ft 262 kts 160°
2026-04-14 21:13 32.50875 -65.02205 4414 ft 261 kts 160°
2026-04-14 21:13 32.49162 -65.01517 4151 ft 261 kts 160°
2026-04-14 21:14 32.45754 -65.00147 3597 ft 258 kts 159°
2026-04-14 21:14 32.44055 -64.99458 3365 ft 259 kts 159°
2026-04-14 21:14 32.42482 -64.98462 3076 ft 254 kts 137°
2026-04-14 21:14 32.41455 -64.96798 2986 ft 252 kts 110°
2026-04-14 21:15 32.40990 -64.94799 2985 ft 253 kts 100°
2026-04-14 21:15 32.40657 -64.92759 2984 ft 253 kts 100°
2026-04-14 21:15 32.40327 -64.90711 2987 ft 254 kts 100°
2026-04-14 21:15 32.39995 -64.88696 2988 ft 243 kts 100°
2026-04-14 21:16 32.39680 -64.86804 2992 ft 227 kts 100°
2026-04-14 21:16 32.39379 -64.85024 2995 ft 214 kts 100°
2026-04-14 21:16 32.39089 -64.83350 2762 ft 204 kts 100°
2026-04-14 21:16 32.38809 -64.81730 2412 ft 197 kts 100°
2026-04-14 21:17 32.38545 -64.80209 2159 ft 181 kts 100°
2026-04-14 21:17 32.38301 -64.78797 1865 ft 169 kts 100°
2026-04-14 21:17 32.38074 -64.77483 1628 ft 156 kts 100°
2026-04-14 21:17 32.37863 -64.76269 1405 ft 145 kts 101°
2026-04-14 21:18 32.37670 -64.75160 1202 ft 132 kts 100°
2026-04-14 21:18 32.37491 -64.74125 950 ft 123 kts 99°
2026-04-14 21:18 32.37327 -64.73162 744 ft 116 kts 99°
2026-04-14 21:18 32.37166 -64.72236 589 ft 116 kts 99°
2026-04-14 21:19 32.37008 -64.71300 406 ft 117 kts 101°
2026-04-14 21:19 32.36838 -64.70355 260 ft 119 kts 99°
2026-04-14 21:19 32.36674 -64.69402 86 ft 117 kts 99°
2026-04-14 21:19 32.36524 -64.68520 27 ft 85 kts 102°
2026-04-14 21:20 32.36444 -64.68101 26 ft 39 kts 102°
2026-04-14 21:20 32.36411 -64.67908 26 ft 23 kts 101°
2026-04-14 21:20 32.36373 -64.67685 27 ft 29 kts 102°
2026-04-14 21:20 32.36332 -64.67454 24 ft 29 kts 101°
2026-04-14 21:21 32.36293 -64.67217 27 ft 29 kts 100°
2026-04-14 21:21 32.36310 -64.67035 28 ft 17 kts 64°
2026-04-14 21:21 32.36351 -64.66936 31 ft 0 kts 56°
2026-04-14 21:21 32.36354 -64.66935 31 ft 1 kts 39°
2026-04-14 21:22 32.36362 -64.66937 30 ft 1 kts 355°
2026-04-14 21:22 32.36387 -64.66966 33 ft 10 kts 301°
2026-04-14 21:22 32.36408 -64.67069 32 ft 15 kts 282°
2026-04-14 21:22 32.36431 -64.67200 31 ft 18 kts 281°
2026-04-14 21:23 32.36457 -64.67357 31 ft 21 kts 282°
2026-04-14 21:23 32.36488 -64.67538 31 ft 24 kts 281°
2026-04-14 21:23 32.36523 -64.67740 31 ft 26 kts 281°
2026-04-14 21:23 32.36560 -64.67960 31 ft 28 kts 281°
2026-04-14 21:24 32.36602 -64.68198 31 ft 30 kts 282°
2026-04-14 21:24 32.36644 -64.68437 31 ft 21 kts 281°
2026-04-14 21:24 32.36675 -64.68614 31 ft 23 kts 282°
2026-04-14 21:24 32.36710 -64.68813 31 ft 26 kts 281°
2026-04-14 21:25 32.36670 -64.69025 28 ft 29 kts 247°
2026-04-14 21:25 32.36586 -64.69260 27 ft 32 kts 248°
2026-04-14 21:25 32.36502 -64.69499 32 ft 32 kts 248°
2026-04-14 21:25 32.36423 -64.69721 33 ft 24 kts 247°
2026-04-14 21:26 32.36356 -64.69901 33 ft 16 kts 247°
2026-04-14 21:26 32.36294 -64.70007 33 ft 13 kts 221°
2026-04-14 21:26 32.36257 -64.70040 33 ft 7 kts 216°
2026-04-14 21:26 32.36203 -64.70048 35 ft 9 kts 163°
2026-04-14 21:27 32.36177 -64.70035 33 ft 4 kts 156°
2026-04-14 21:27 32.36154 -64.70021 33 ft 2 kts 153°
2026-04-14 21:27 32.36145 -64.70016 33 ft 0 kts 153°